Showing default

LKW-4, 43236

Orbit data source: Space-Track

LKW-4, 43236 is a Chinese payload satellite in SSO that was launched on Sat, 17 Mar 2018 UTC via a CHANG ZHENG 2D launch vehicle from the Jiuquan Satellite Launch Center, China (JSC). Payload-class satellites include a variety of spacecraft equipped with specific instruments for various scientific and technological missions. These include communications satellites like Starlink; space stations such as the ISS; scientific satellites like the Hubble; Earth observation satellites from companies like Planet Labs, Umbra, and HawkEye 360; GPS; miniature CubeSats for education and research; and military/defense satellites.

Loading next visibility...
Identifier
43236, 2018-025A
Orbit
SSO
Country
Flag of CNCN / PRC
Related business
Manufacturer
CAST?
Mission
Operational Defense Imaging
Bus & Motor
LKW, Unknown motor
Mass
~2,000 kg wet, ~2,000 kg dry
Launch date (UTC)
2018-03-17 (8 years ago)
Launch vehicle
CHANG ZHENG 2D
Launch site
Jiuquan Satellite Launch Center, China (JSC)
Object type
Payload
Rocket body
Debris
Shape & HBR
Hex Cyl + 3 Pan, 5.0 m
Radar Cross Section
8.135 m², Large (>1 m²)

Expand to show TLE details & history
Last TLE update: 2 days ago

TLE from 2 days ago
0 LKW-4
1 43236U 18025A   26171.47381377  .00037380  00000-0  42047-3 0  9992
2 43236  97.6353 342.6049 0001991 272.5428  87.5601 15.62504246460542
Epoch: 2026-06-20T11:22Z
TLE epoch observation values (Epoch: 2026-06-20T11:22:17.509Z)
Latitude
-0.00009°
Longitude
-96.65597°
Altitude
383.51 km
Speed
7.68 km/s
True Right ascension
22h 50m 25s
True Declination
0° 00' 00"
Sunlit
Object was in daylight at epoch
Visualization orbit readout
Latitude
Unknown
Longitude
Unknown
Altitude
Unknown
Speed
Unknown
Apparent Right ascension
Unknown
Apparent Declination
Unknown
Sunlit
N/A
Visualization observer readout
Local Sidereal Time
21:39:04
Azimuth
Unknown
Elevation
Unknown
Doppler factor
Unknown
Orbital elements
Apogee altitude
378.691 km
Perigee altitude
376.001 km
Semi-major axis
6,755.483 km
Eccentricity
0.0002
Inclination
97.6353°
RAAN
342.6049°
Arg. of periapsis
272.5428°
True anomaly
87.58289°
Mean anomaly
87.5601°
Eccentric anomaly
87.5715°
Mean motion
3.90894 °/min
Orbital period
92.1 mins
BSTAR
0.00042047
Loading maneuver chart data...
Computing Atmospheric mass density...
Loading historical data...
Loading historical data...
Loading historical data...
Loading historical data...
Loading historical data...
Loading historical data...
Loading historical data...

Documentation

Showing up to 5 results
|